Location: Isle-of-Palms
(32.8045°N, 79.7399°W)
Time: 22:49:41
(UTC+00:00)

Hubble Space Telescope - Pass Details

Date: 14 August 2022
Orbit: 532 x 535 km, 28.5° (Epoch: 23 September)

Event Time Altitude Azimuth Distance (km) Brightness Sun altitude
Rises 00:52:24 0° 266° (W) 2,666 5.5 -9.9°
Reaches altitude 10° 00:54:47 10° 258° (WSW) 1,776 4.3 -10.4°
Maximum altitude 00:58:34 37° 190° (S) 842 1.6 -11.1°
Enters shadow 01:01:19 17° 130° (SE) 1,410 2.3 -11.6°
